Wind_Speed
13 14 14 14 15 16 16 16 16 16 16 16 16 16 16 16 17 17 17 18 17 18 18 18 18 19 19 19 19 19 19 19 20 20 21 21 21 22
15 15 15 16 16 17 17 17 17 17 16 17 17 18 17 17 17 17 17 18 18 18 18 18 18 18 18 19 19 20 19 20 20 21 22 22 22 23
17 18 17 18 18 18 18 18 18 18 18 18 19 19 19 18 18 18 18 19 19 19 18 18 18 19 19 19 19 20 20 21 21 22 22 22 23 23
20 20 20 20 20 20 20 20 20 19 19 20 20 21 21 20 20 20 20 20 20 20 20 19 19 20 20 20 20 21 21 21 22 22 23 24 24 24
21 21 22 22 22 22 22 21 21 21 21 21 21 22 22 22 21 20 20 21 21 21 22 22 22 22 22 22 22 22 22 22 23 23 23 23 24 24
23 23 24 24 24 24 24 23 23 23 22 22 22 23 23 23 22 21 21 22 22 23 22 22 23 23 23 23 24 24 24 23 23 24 24 24 24 24
24 24 25 25 25 25 25 25 25 25 24 24 24 23 23 23 23 22 22 23 23 24 23 23 24 24 24 25 25 25 25 25 24 24 25 25 25 26
25 25 26 26 25 25 26 26 26 26 25 25 25 23 23 24 24 24 24 24 24 24 24 25 25 25 25 26 26 26 26 27 27 26 26 26 26 26
27 27 26 26 26 27 27 27 27 26 26 26 26 25 25 25 26 25 25 25 25 25 26 26 25 25 26 26 26 27 28 28 28 27 27 27 27 28
28 27 27 28 28 28 27 28 28 27 27 27 27 26 26 27 28 27 27 27 27 27 27 27 26 27 26 26 27 27 28 28 29 28 28 28 28 28
29 29 29 28 29 29 29 29 29 29 29 29 28 28 28 28 29 30 29 29 29 29 29 29 28 28 28 27 28 28 28 29 29 29 29 29 29 28
30 29 29 29 29 29 30 30 30 30 30 29 29 29 30 30 30 31 31 30 30 30 29 29 29 29 28 28 28 28 28 28 29 29 29 29 29 29
31 31 30 30 30 30 30 31 31 31 31 31 31 31 32 32 32 32 31 31 30 30 30 29 29 29 29 28 28 29 29 29 29 29 29 29 28 28
32 32 31 30 30 30 31 31 31 32 32 32 32 32 33 32 32 32 32 32 31 30 29 29 29 29 30 30 29 29 29 29 29 29 29 29 29 29
33 32 32 31 31 31 32 32 33 33 34 33 32 32 33 33 32 32 32 32 31 31 30 30 30 30 30 30 30 29 29 29 30 29 29 29 29 29
33 32 32 32 32 32 33 33 33 34 33 33 34 33 33 32 32 32 32 32 31 31 31 30 30 30 30 31 30 30 30 29 29 29 28 28 28 28
34 33 33 33 33 33 33 33 33 33 32 33 34 33 33 32 31 30 30 30 30 30 30 30 30 30 31 31 30 30 30 29 29 29 28 28 28 28
33 33 33 33 33 33 32 32 32 32 33 33 33 32 32 31 31 30 30 30 30 29 30 30 30 30 30 29 29 30 30 29 29 29 28 27 27 28
34 34 34 33 33 33 33 33 33 32 32 32 32 32 31 31 31 31 31 31 31 31 30 30 30 30 30 29 29 29 29 28 28 28 27 27 27 27
34 34 34 34 33 33 33 33 33 33 32 32 32 32 31 32 32 32 32 31 31 31 31 31 30 30 30 29 29 29 28 28 27 27 27 27 27 26
34 33 33 34 33 32 32 32 32 31 31 31 31 31 31 31 32 32 32 32 32 32 31 31 31 30 30 30 29 28 27 27 27 27 27 27 26 26
34 33 32 32 32 31 30 30 30 30 30 30 31 31 31 31 32 33 33 33 33 32 31 30 30 30 30 30 30 29 28 28 28 28 28 28 27 26
34 33 32 31 31 31 30 30 30 30 31 31 31 31 32 32 33 33 33 33 32 32 30 30 30 30 30 29 29 30 29 28 28 29 28 27 27 27
Wind_Direction
311 310 310 309 307 306 304 301 299 299 297 296 296 296 296 296 294 292 293 291 288 286 286 283 281 280 278 277 276 273 272 269 268 269 266 266 267 266
307 307 308 308 307 307 306 303 301 300 299 297 297 297 298 296 294 293 294 293 290 287 286 284 283 282 281 279 278 276 275 272 271 270 269 267 267 268
303 302 302 303 304 305 305 303 300 300 301 300 299 298 298 296 294 291 292 291 289 287 286 283 280 278 279 280 280 278 277 275 272 272 270 267 269 269
300 300 299 299 299 300 301 301 299 298 298 298 298 296 296 294 291 288 289 289 288 287 285 284 281 278 278 277 279 278 278 278 277 276 272 270 270 270
296 297 297 296 296 296 295 296 297 296 296 296 296 296 295 293 290 287 286 287 287 287 286 284 282 279 279 280 280 280 278 278 276 276 275 271 271 272
294 294 296 295 294 293 293 294 296 296 296 294 293 294 293 292 290 287 285 286 286 286 286 284 282 282 281 282 281 281 280 279 277 276 275 272 271 271
294 294 294 293 293 291 291 291 292 293 293 292 292 293 291 290 290 287 285 285 284 284 285 285 283 282 280 280 280 281 280 279 277 276 274 273 271 270
292 292 292 292 291 289 289 289 289 289 289 289 290 290 289 288 287 286 286 284 283 283 284 284 284 283 281 280 280 280 279 278 277 275 275 274 273 272
293 291 290 290 289 289 288 287 287 288 288 287 286 286 286 285 285 284 284 284 282 282 283 283 283 283 283 281 280 279 278 277 276 276 275 275 273 272
292 291 290 289 289 290 289 288 288 287 287 287 286 284 285 285 284 284 283 283 282 282 282 282 282 283 283 283 282 281 281 279 277 276 275 275 274 272
294 291 290 289 290 289 288 287 287 287 284 285 285 284 285 285 285 284 283 283 282 282 281 281 282 283 283 284 283 282 281 281 279 277 276 275 275 273
294 294 293 291 290 288 287 286 285 286 284 285 285 285 285 285 285 283 284 283 283 282 280 281 281 282 282 282 283 283 283 283 283 279 277 276 275 274
294 295 294 292 290 288 286 285 285 284 285 285 284 284 284 285 286 284 284 284 284 283 281 281 282 281 282 282 282 282 283 283 283 281 278 277 276 275
293 294 293 292 291 289 287 286 285 284 284 284 283 283 284 285 285 284 283 283 283 283 282 281 281 281 281 283 284 283 283 282 282 281 279 277 275 275
290 291 291 291 290 288 287 286 285 284 284 283 282 283 284 284 284 284 282 281 281 281 281 281 280 281 282 282 283 283 283 283 282 280 278 277 275 273
288 289 289 289 289 289 287 286 286 285 283 281 281 282 283 284 283 283 282 281 280 281 281 280 280 280 280 282 283 282 283 283 282 281 278 276 274 273
288 289 289 289 289 288 286 287 287 284 282 281 280 281 281 281 281 281 282 283 281 280 280 281 281 281 280 281 281 281 282 281 280 280 278 276 274 273
289 288 288 288 288 288 286 286 285 285 284 283 281 280 280 279 279 280 282 283 282 282 281 280 280 281 281 281 282 282 281 280 279 279 278 276 277 276
289 288 287 287 287 286 287 287 286 286 285 283 281 280 279 278 278 280 281 281 281 282 283 282 281 281 279 279 280 282 283 282 281 278 275 277 279 279
290 290 289 288 288 287 287 288 287 286 286 284 282 281 280 278 279 281 282 281 281 282 283 282 281 281 279 279 280 281 282 281 279 276 274 275 277 276
291 290 289 288 288 288 288 289 288 287 286 285 283 282 281 281 280 281 282 282 282 282 281 280 279 279 279 279 280 280 280 280 279 277 274 274 275 275
289 289 289 290 290 289 289 289 288 287 286 284 283 282 282 282 281 282 282 281 281 281 280 279 278 277 278 279 279 278 278 278 279 278 277 276 273 275
287 288 289 290 289 289 289 289 290 290 288 285 283 283 282 282 281 281 280 279 280 280 280 279 278 277 277 278 278 278 278 279 279 279 277 275 272 273
Height
5870 5869 5867 5865 5863 5861 5860 5858 5857 5855 5854 5852 5851 5849 5847 5846 5845 5843 5842 5841 5840 5839 5838 5837 5837 5836 5836 5836 5836 5836 5836 5836 5837 5837 5838 5838 5838 5838
5867 5865 5864 5862 5860 5858 5856 5854 5852 5851 5849 5848 5847 5845 5843 5841 5840 5839 5837 5836 5835 5834 5833 5832 5831 5831 5831 5830 5830 5830 5830 5830 5830 5831 5831 5831 5831 5831
5863 5862 5860 5858 5856 5854 5852 5850 5848 5846 5845 5843 5842 5840 5838 5836 5835 5834 5832 5831 5830 5829 5827 5826 5826 5826 5825 5825 5825 5824 5824 5824 5824 5824 5824 5825 5824 5825
5859 5857 5855 5853 5851 5849 5847 5845 5843 5841 5840 5838 5837 5835 5833 5831 5830 5828 5827 5825 5824 5823 5822 5821 5820 5820 5820 5819 5819 5819 5818 5818 5818 5817 5817 5817 5817 5817
5853 5851 5850 5848 5846 5844 5842 5840 5838 5836 5834 5833 5831 5829 5827 5825 5824 5822 5821 5819 5818 5817 5816 5815 5814 5814 5814 5813 5812 5812 5812 5811 5811 5811 5810 5810 5810 5810
5847 5845 5844 5841 5839 5837 5835 5834 5832 5830 5828 5826 5824 5823 5821 5819 5817 5816 5815 5813 5812 5811 5810 5809 5808 5807 5807 5806 5806 5805 5805 5804 5804 5804 5803 5803 5803 5803
5841 5838 5836 5834 5832 5830 5828 5827 5825 5823 5821 5819 5818 5816 5814 5812 5811 5809 5808 5807 5805 5804 5803 5802 5801 5800 5800 5799 5799 5798 5798 5797 5797 5796 5796 5796 5796 5795
5834 5831 5829 5827 5825 5823 5821 5819 5818 5816 5814 5812 5811 5809 5807 5805 5803 5802 5800 5799 5798 5798 5796 5795 5794 5793 5792 5792 5791 5791 5790 5790 5789 5789 5788 5788 5788 5788
5826 5824 5822 5819 5817 5815 5813 5811 5810 5808 5806 5805 5803 5802 5800 5798 5796 5795 5793 5792 5791 5790 5789 5788 5787 5786 5785 5784 5783 5783 5782 5782 5781 5781 5780 5780 5780 5780
5818 5816 5814 5812 5810 5808 5806 5804 5802 5800 5799 5797 5795 5794 5792 5790 5788 5787 5785 5784 5783 5782 5781 5780 5779 5778 5777 5776 5775 5775 5774 5773 5773 5772 5772 5772 5771 5771
5810 5808 5806 5804 5802 5799 5797 5795 5794 5792 5790 5788 5787 5785 5784 5782 5780 5779 5777 5776 5775 5774 5773 5772 5771 5771 5770 5769 5767 5766 5765 5765 5764 5764 5763 5763 5763 5763
5802 5800 5797 5795 5793 5790 5788 5787 5785 5784 5782 5780 5779 5777 5775 5773 5771 5770 5768 5767 5766 5766 5765 5764 5763 5762 5762 5761 5759 5758 5757 5756 5755 5754 5754 5754 5754 5754
5794 5791 5789 5786 5784 5781 5779 5778 5776 5775 5773 5772 5770 5769 5767 5765 5763 5761 5759 5758 5758 5757 5756 5755 5754 5753 5752 5752 5751 5750 5748 5747 5746 5745 5745 5745 5744 5745
5784 5782 5780 5777 5775 5772 5770 5769 5767 5765 5764 5762 5761 5759 5758 5756 5754 5752 5750 5749 5749 5748 5746 5745 5745 5744 5743 5743 5742 5741 5740 5738 5737 5737 5736 5735 5735 5735
5775 5773 5770 5768 5765 5763 5761 5759 5757 5755 5754 5753 5752 5750 5748 5747 5745 5743 5741 5740 5739 5738 5737 5736 5736 5735 5734 5734 5733 5732 5731 5730 5728 5728 5727 5726 5726 5726
5765 5763 5761 5758 5756 5754 5751 5749 5747 5745 5744 5743 5741 5740 5739 5737 5736 5734 5733 5732 5731 5730 5728 5727 5726 5725 5725 5725 5724 5723 5722 5721 5720 5718 5717 5717 5717 5717
5755 5753 5751 5749 5746 5744 5741 5739 5737 5735 5734 5732 5731 5730 5728 5727 5726 5725 5724 5722 5722 5721 5720 5718 5717 5716 5716 5715 5715 5714 5712 5712 5711 5710 5709 5709 5709 5709
5745 5743 5741 5739 5736 5734 5732 5730 5727 5726 5724 5722 5721 5720 5719 5717 5717 5715 5714 5713 5713 5712 5711 5709 5708 5707 5706 5706 5706 5704 5703 5702 5702 5701 5700 5700 5700 5700
5734 5732 5730 5728 5726 5724 5722 5720 5718 5716 5714 5712 5711 5710 5709 5708 5707 5706 5705 5704 5704 5703 5701 5700 5699 5698 5697 5697 5696 5695 5694 5693 5692 5692 5691 5691 5691 5691
5724 5722 5720 5718 5716 5714 5712 5710 5708 5706 5704 5703 5702 5700 5699 5699 5698 5697 5696 5695 5694 5693 5692 5691 5690 5688 5688 5687 5687 5686 5685 5684 5684 5683 5683 5683 5682 5682
5714 5712 5710 5708 5706 5704 5702 5700 5698 5696 5695 5693 5692 5691 5690 5689 5688 5687 5686 5685 5684 5683 5682 5681 5680 5679 5678 5677 5677 5677 5676 5675 5675 5674 5674 5674 5673 5673
5704 5702 5700 5698 5696 5694 5692 5691 5689 5687 5685 5683 5682 5681 5680 5679 5678 5677 5676 5675 5674 5673 5672 5671 5670 5669 5669 5669 5668 5668 5667 5667 5666 5665 5665 5665 5664 5664
5694 5693 5691 5689 5687 5685 5683 5681 5679 5677 5676 5674 5673 5672 5671 5669 5668 5667 5666 5665 5664 5663 5662 5661 5660 5660 5659 5659 5658 5658 5657 5657 5656 5656 5656 5655 5655 5655